Location: Borger
(52.9222°N, 6.7926°E)
Time: 05:46:41
(UTC+00:00)

Cosmos 1953 Rocket - Pass Details

Date: 15 May 2026
Orbit: 597 x 628 km, 82.5° (Epoch: 6 June)

Event Time Altitude Azimuth Distance (km) Brightness Sun altitude
Rises 22:11:19 0° 343° (NNW) 2,885 8.9 -16.1°
Reaches altitude 10° 22:13:38 10° 336° (NNW) 1,971 7.5 -16.2°
Maximum altitude 22:17:42 40° 268° (W) 903 4.5 -16.4°
Enters shadow 22:20:11 20° 210° (SSW) 1,394 5.0 -16.5°
